• In Uzbekistan
  • List of Countries
  • For 7 days
  • Water Temperature
  • Satellite Maps
  • Weather Map
  • Weather Widgets
  • user-avatar
    Login

    Hourly Weather Belize

    Today, 17 July, Wednesday

    Time Temperature Precipitation Wind Pressure Humidity
    00:00 +27°C° 0 mm 5 mps 760 mmHg 96%
    01:00 +26°C° 0 mm 5 mps 760 mmHg 96%
    02:00 +26°C° 0 mm 5 mps 760 mmHg 96%
    03:00 +26°C° 0 mm 5 mps 759 mmHg 96%
    04:00 +26°C° 0.1 mm 5 mps 760 mmHg 96%
    05:00 +26°C° 0.1 mm 5 mps 760 mmHg 97%
    06:00 +26°C° 0.1 mm 6 mps 760 mmHg 97%
    07:00 +27°C° 0.4 mm 6 mps 760 mmHg 95%
    08:00 +28°C° 0.4 mm 6 mps 761 mmHg 93%
    09:00 +29°C° 0.4 mm 6 mps 761 mmHg 91%
    10:00 +30°C° 0.6 mm 6 mps 761 mmHg 90%
    11:00 +30°C° 0.6 mm 6 mps 761 mmHg 88%
    12:00 +30°C° 0.6 mm 6 mps 761 mmHg 87%
    13:00 +32°C° 0.7 mm 6 mps 760 mmHg 81%
    14:00 +32°C° 0.7 mm 6 mps 760 mmHg 75%
    15:00 +33°C° 0.7 mm 6 mps 759 mmHg 69%
    16:00 +32°C° 0.5 mm 6 mps 759 mmHg 73%
    17:00 +30°C° 0.5 mm 6 mps 759 mmHg 77%
    18:00 +29°C° 0.5 mm 6 mps 759 mmHg 80%
    19:00 +28°C° 0.7 mm 6 mps 759 mmHg 86%
    20:00 +27°C° 0.7 mm 6 mps 760 mmHg 92%
    21:00 +26°C° 0.7 mm 6 mps 760 mmHg 97%
    22:00 +26°C° 0.6 mm 6 mps 760 mmHg 98%
    23:00 +26°C° 0.6 mm 6 mps 760 mmHg 98%

    Tomorrow, 18 July, Thursday

    Time Temperature Precipitation Wind Pressure Humidity
    00:00 +26°C° 0.6 mm 6 mps 760 mmHg 98%
    01:00 +26°C° 0.5 mm 7 mps 760 mmHg 98%
    02:00 +26°C° 0.5 mm 7 mps 759 mmHg 98%
    03:00 +26°C° 0.5 mm 7 mps 759 mmHg 98%
    04:00 +26°C° 0.1 mm 7 mps 759 mmHg 98%
    05:00 +26°C° 0.1 mm 7 mps 759 mmHg 98%
    06:00 +26°C° 0.1 mm 7 mps 759 mmHg 98%
    07:00 +28°C° 0 mm 7 mps 760 mmHg 87%
    08:00 +30°C° 0 mm 7 mps 760 mmHg 77%
    09:00 +32°C° 0 mm 7 mps 761 mmHg 66%
    10:00 +33°C° 0 mm 7 mps 761 mmHg 62%
    11:00 +34°C° 0 mm 6 mps 760 mmHg 57%
    12:00 +35°C° 0 mm 6 mps 760 mmHg 52%
    13:00 +35°C° 0 mm 6 mps 760 mmHg 53%
    14:00 +34°C° 0 mm 6 mps 759 mmHg 55%
    15:00 +34°C° 0 mm 5 mps 759 mmHg 56%
    16:00 +33°C° 0 mm 5 mps 759 mmHg 62%
    17:00 +30°C° 0 mm 5 mps 759 mmHg 69%
    18:00 +29°C° 0 mm 5 mps 759 mmHg 75%
    19:00 +28°C° 0 mm 5 mps 759 mmHg 82%
    20:00 +26°C° 0 mm 5 mps 760 mmHg 89%
    21:00 +25°C° 0 mm 5 mps 760 mmHg 96%
    22:00 +24°C° 0.2 mm 6 mps 760 mmHg 97%
    23:00 +24°C° 0.2 mm 6 mps 760 mmHg 97%

    Day after tomorrow, 19 July, Friday

    Time Temperature Precipitation Wind Pressure Humidity
    00:00 +24°C° 0.2 mm 6 mps 760 mmHg 98%
    01:00 +24°C° 0 mm 6 mps 759 mmHg 97%
    02:00 +24°C° 0 mm 6 mps 759 mmHg 97%
    03:00 +25°C° 0 mm 5 mps 759 mmHg 96%
    04:00 +25°C° 0 mm 5 mps 759 mmHg 96%
    05:00 +26°C° 0 mm 5 mps 759 mmHg 95%
    06:00 +26°C° 0 mm 5 mps 759 mmHg 95%
    07:00 +28°C° 0 mm 5 mps 759 mmHg 84%
    08:00 +30°C° 0 mm 5 mps 760 mmHg 73%
    09:00 +33°C° 0 mm 5 mps 760 mmHg 62%
    10:00 +33°C° 0.1 mm 5 mps 760 mmHg 60%
    11:00 +34°C° 0.1 mm 5 mps 760 mmHg 59%
    12:00 +34°C° 0.1 mm 5 mps 760 mmHg 57%
    13:00 +34°C° 0.2 mm 5 mps 760 mmHg 63%
    14:00 +33°C° 0.2 mm 5 mps 759 mmHg 69%
    15:00 +32°C° 0.2 mm 5 mps 759 mmHg 75%
    16:00 +32°C° 0 mm 5 mps 759 mmHg 76%
    17:00 +30°C° 0 mm 5 mps 759 mmHg 77%
    18:00 +29°C° 0 mm 5 mps 759 mmHg 78%
    19:00 +28°C° 0 mm 5 mps 759 mmHg 84%
    20:00 +27°C° 0 mm 5 mps 759 mmHg 89%
    21:00 +26°C° 0 mm 5 mps 760 mmHg 95%
    22:00 +26°C° 0 mm 5 mps 760 mmHg 96%
    23:00 +26°C° 0 mm 5 mps 759 mmHg 97%

    20 July, Saturday

    Time Temperature Precipitation Wind Pressure Humidity
    00:00 +26°C° 0 mm 5 mps 759 mmHg 98%
    01:00 +26°C° 0.3 mm 5 mps 759 mmHg 98%
    02:00 +26°C° 0.3 mm 5 mps 758 mmHg 98%
    03:00 +25°C° 0.3 mm 5 mps 758 mmHg 98%
    04:00 +25°C° 1.8 mm 5 mps 758 mmHg 98%
    05:00 +25°C° 1.8 mm 5 mps 758 mmHg 98%
    06:00 +25°C° 1.8 mm 5 mps 759 mmHg 99%
    07:00 +26°C° 3.6 mm 6 mps 759 mmHg 98%
    08:00 +27°C° 3.6 mm 6 mps 759 mmHg 96%
    09:00 +29°C° 3.6 mm 7 mps 760 mmHg 95%
    10:00 +28°C° 3.3 mm 7 mps 760 mmHg 95%
    11:00 +28°C° 3.3 mm 6 mps 760 mmHg 95%
    12:00 +28°C° 3.3 mm 6 mps 759 mmHg 95%
    13:00 +29°C° 1.6 mm 6 mps 759 mmHg 93%
    14:00 +29°C° 1.6 mm 6 mps 758 mmHg 91%
    15:00 +29°C° 1.6 mm 6 mps 758 mmHg 89%
    16:00 +29°C° 0.4 mm 6 mps 758 mmHg 91%
    17:00 +28°C° 0.4 mm 6 mps 758 mmHg 93%
    18:00 +28°C° 0.4 mm 6 mps 758 mmHg 95%
    19:00 +27°C° 0.2 mm 6 mps 758 mmHg 96%
    20:00 +27°C° 0.2 mm 6 mps 759 mmHg 97%
    21:00 +27°C° 0.2 mm 6 mps 759 mmHg 98%
    22:00 +27°C° 0.1 mm 6 mps 759 mmHg 98%
    23:00 +26°C° 0.1 mm 6 mps 759 mmHg 98%

    21 July, Sunday

    Time Temperature Precipitation Wind Pressure Humidity
    00:00 +26°C° 0.1 mm 6 mps 759 mmHg 98%
    01:00 +26°C° 0.2 mm 6 mps 758 mmHg 98%
    02:00 +26°C° 0.2 mm 6 mps 758 mmHg 98%
    03:00 +26°C° 0.2 mm 6 mps 758 mmHg 98%
    04:00 +26°C° 0 mm 6 mps 758 mmHg 98%
    05:00 +26°C° 0 mm 6 mps 758 mmHg 98%
    06:00 +26°C° 0 mm 6 mps 758 mmHg 98%
    07:00 +27°C° 0.3 mm 6 mps 759 mmHg 96%
    08:00 +28°C° 0.3 mm 6 mps 759 mmHg 95%
    09:00 +30°C° 0.3 mm 6 mps 759 mmHg 93%
    10:00 +30°C° 1 mm 6 mps 759 mmHg 92%
    11:00 +30°C° 1 mm 6 mps 759 mmHg 91%
    12:00 +30°C° 1 mm 6 mps 759 mmHg 91%
    13:00 +30°C° 0.6 mm 6 mps 758 mmHg 89%
    14:00 +30°C° 0.6 mm 6 mps 758 mmHg 87%
    15:00 +30°C° 0.6 mm 6 mps 758 mmHg 85%
    16:00 +29°C° 0.2 mm 6 mps 758 mmHg 85%
    17:00 +29°C° 0.2 mm 6 mps 758 mmHg 85%
    18:00 +29°C° 0.2 mm 6 mps 758 mmHg 85%
    19:00 +28°C° 0.4 mm 6 mps 758 mmHg 87%
    20:00 +28°C° 0.4 mm 6 mps 759 mmHg 89%
    21:00 +27°C° 0.4 mm 6 mps 759 mmHg 91%
    22:00 +27°C° 0.5 mm 6 mps 759 mmHg 93%
    23:00 +27°C° 0.5 mm 5 mps 759 mmHg 94%

    22 July, Monday

    Time Temperature Precipitation Wind Pressure Humidity
    00:00 +26°C° 0.5 mm 5 mps 759 mmHg 95%
    01:00 +26°C° 0.7 mm 5 mps 759 mmHg 96%
    02:00 +26°C° 0.7 mm 5 mps 758 mmHg 98%
    03:00 +25°C° 0.7 mm 5 mps 758 mmHg 99%
    04:00 +25°C° 1.1 mm 4 mps 758 mmHg 99%
    05:00 +25°C° 1.1 mm 4 mps 758 mmHg 99%
    06:00 +25°C° 1.1 mm 3 mps 758 mmHg 99%
    07:00 +27°C° 0.9 mm 4 mps 759 mmHg 91%
    08:00 +29°C° 0.9 mm 4 mps 759 mmHg 83%
    09:00 +32°C° 0.9 mm 4 mps 759 mmHg 75%
    10:00 +33°C° 0.5 mm 4 mps 759 mmHg 70%
    11:00 +33°C° 0.5 mm 4 mps 759 mmHg 66%
    12:00 +34°C° 0.5 mm 4 mps 759 mmHg 61%
    13:00 +34°C° 0.3 mm 4 mps 759 mmHg 62%
    14:00 +34°C° 0.3 mm 4 mps 758 mmHg 63%
    15:00 +34°C° 0.3 mm 5 mps 758 mmHg 65%
    16:00 +32°C° 0.4 mm 5 mps 758 mmHg 74%
    17:00 +30°C° 0.4 mm 5 mps 758 mmHg 82%
    18:00 +28°C° 0.4 mm 5 mps 758 mmHg 91%
    19:00 +28°C° 0 mm 5 mps 758 mmHg 93%
    20:00 +27°C° 0 mm 5 mps 759 mmHg 96%
    21:00 +26°C° 0 mm 5 mps 759 mmHg 98%
    22:00 +26°C° 0 mm 5 mps 759 mmHg 98%
    23:00 +26°C° 0 mm 5 mps 759 mmHg 98%
    Show more